C/2006 L2 (McNaught)
Epoch 2006 Nov. 1.0 TT = JDT 2454040.5  
T 2006 Nov. 20.19972 TT                                 Nakano
q   1.9939487            (2000.0)            P               Q
z  -0.0004731      Peri.   48.03481     -0.46409920     +0.27035007
 +/-0.0000016      Node   239.24604     -0.75084109     +0.38515958
e   1.0009433      Incl.  101.02230     +0.46994638     +0.88236214
From 381 observations 2006 June 14-2007 July 7, mean residual 0".65.
   (1/a)org.= -0.000000, (1/a)fut.= -0.000108 (+/-0.000002), Q= 8.
Residuals in seconds of arc 
2006/                     060709 I77  0.0   0.4+    070101 J70  0.8-  1.6+  
060614 E12  0.6-  0.3-    060709 I77  1.9+  0.3-    070101 J70  1.1-  0.1+  
060614 E12  0.4-  0.4-    060714 372  0.4+  0.7+    070101 J70  1.3-  1.1-  
060614 E12  0.7-  0.0     060714 372  0.6+  0.1+    070101 J70  0.6-  0.1+  
060614 E12  0.8-  0.1-    060715 I77  0.2-  0.2+    070101 J70  1.3-  1.6+  
060614 E12  0.4-  0.2-    060715 I77  0.3-  0.5+    070101 J70 (0.7+  3.3+) 
060614 E12  0.4-  0.3+    060715 I77  0.4-  0.4+    070101 J70  0.4+  1.2+  
060614 E12  0.7-  0.3-    060716 213  0.7-  0.1-    070101 J70 (0.1+  2.5+) 
060614 E12  0.9-  0.4+    060716 213  0.5-  0.7+    070101 J70  0.3-  1.6+  
060614 E12  0.1-  0.6-    060716 213  0.5-  0.7+    070101 J70  0.6+  1.1+  
060614 E12  0.0   0.3-    060716 808  0.8-  0.6+    070112 349  0.5-  0.1+  
060614 E12  0.2-  0.4-    060716 808  0.7-  0.9+    070112 349  0.4-  0.1+  
060614 E12  0.1+  0.8-    060717 808  1.2-  0.4+    070112 349  0.6-  0.0   
060614 E12  0.2+  0.2-    060717 808  1.0-  0.6+    070116 561  0.9-  1.7-  
060614 E12  0.1+  0.2-    060717 808  0.5-  1.0+    070116 561  1.0-  1.8-  
060614 E12  0.1+  0.4-    060717 808  0.7-  0.2+    070116 561  0.6-  1.4-  
060614 E12  0.1-  0.6+    060717 808  1.0-  0.7+    070124 704 (2.5-  0.3+) 
060614 808  0.8+  1.0-    060717 H06  0.4-  0.3+    070124 704 (3.0+  0.0 ) 
060614 808  1.0-  0.6+    060717 H06  0.0   0.6+    070124 704 (3.2-  0.3+) 
060614 808  0.3+  0.6-    060717 808  0.9-  0.3-    070124 704 (3.8-  0.3-) 
060614 808  0.4-  1.5+    060717 808  1.0-  0.5-    070124 704 (3.2-  0.1+) 
060614 808  0.6-  0.8+    060717 808  0.3-  0.6+    070124 349  0.3+  0.2-  
060614 808  1.7+  0.5+    060719 415  0.5-  0.6+    070124 349  0.5+  0.2+  
060615 808  0.5+  0.4-    060719 415  0.6-  0.5+    070124 349  0.2+  0.2+  
060615 808  2.0+  0.4+    060720 170  0.1+  0.1+    070125 704 (4.3-  1.0-) 
060615 734  0.4+  0.1+    060720 A77  0.6+  0.6+    070125 704 (2.3-  0.3+) 
060615 734  0.1+  0.7+    060720 A77  0.0   1.0-    070125 704 (2.8-  0.1-) 
060615 734  0.5+  0.4-    060720 170  0.4+  0.1+    070125 704 (2.3-  0.5-) 
060615 734  0.4+  0.2-    060720 170  0.2+  0.4+    070125 704 (3.2-  1.0+) 
060615 854  1.4+  0.9-    060720 A77  1.6+  0.6-    070129 361  0.3+  0.6-  
060615 854  1.4+  0.4+    060720 939  0.1+  0.8+    070129 361  0.8+  1.3+  
060615 854 (2.4+  0.3-)   060720 939  0.1-  0.6+    070129 361  0.4+  0.5+  
060615 854  1.6+  0.2+    060720 939  0.4-  0.2+    070129 361  0.4-  0.3+  
060615 854 (2.4+  0.1+)   060721 E12  0.2-  0.6+    070129 361  0.8+  0.3-  
060615 854 (2.3+  0.3-)   060721 E12  0.7-  0.7+    070129 361  0.9+  1.0-  
060615 E12  0.3-  0.3-    060721 E12  0.3-  0.6+    070201 349  0.1-  0.6+  
060615 E12  0.1+  0.2-    060721 213  0.0   0.2+    070201 349  0.0   0.5+  
060615 E12  0.2-  0.2+    060721 213  0.2+  0.1+    070201 349  0.2+  0.7+  
060615 423  0.6+  0.6-    060721 213  0.4+  0.9+    070205 349  0.8+  0.8+  
060615 E12  0.1+  0.1+    060721 445  1.7+  0.2-    070205 349  0.5+  0.5+  
060615 E12  0.1+  0.1+    060721 445  1.4+  0.6-    070207 H06  0.1-  0.1+  
060615 E12  0.3+  0.2+    060721 445  0.4-  0.7-    070207 H06  0.1+  0.2+  
060615 423  0.8+  0.3+    060723 I77  0.1+  0.2+    070208 704  0.5-  0.2+  
060615 E12  0.2-  0.3+    060723 I77  0.3+  0.0     070208 704  0.3-  1.3+  
060615 423  0.6+  0.3-    060723 I77  0.1-  0.2+    070208 704  0.5-  0.4+  
060615 423  0.5+  0.1-    060724 J76  0.3+  0.5+    070208 704 (2.9-  0.8+) 
060615 E12  0.5-  0.4-    060724 J76  0.2+  0.4+    070208 704 (2.6-  0.8+) 
060615 E12  0.2-  0.1-    060724 J76  0.2+  0.6+    070212 361  0.1-  1.3-  
060615 E12  0.5-  0.3-    060725 104  0.5+  0.7+    070212 361  1.7-  1.2-  
060615 E12  0.5-  0.2-    060725 104  0.4+  0.6+    070212 361  0.4-  1.0+  
060616 I77  0.2+  0.6-    060725 104  0.1-  1.1+    070215 442  1.8-  0.6+  
060617 I77  0.5+  0.2-    060727 372  0.3-  1.0-    070215 442  1.4-  0.7+  
060617 I77  0.5-  0.0     060727 372  0.7-  1.2-    070218 B30 (3.8+  4.5-) 
060617 I77  0.1-  0.0     060727 130  0.2-  0.4-    070218 B30 (3.1-  3.4+) 
060617 808  0.2-  0.4-    060727 130  0.4-  0.2-    070218 361  0.6-  0.1-  
060617 808  0.1+  0.2-    060728 372  0.5+  1.2-    070218 361  1.4-  1.5-  
060617 808  0.2+  0.2-    060729 939  1.0+  0.3+    070218 361  0.6-  0.2-  
060617 423  0.0   0.5-    060729 939  1.0+  0.3+    070218 361  0.5+  0.7-  
060617 423  0.1+  0.3-    060729 939  1.0+  0.2+    070226 349  0.1-  0.4-  
060617 423  0.2-  0.4-    060804 349  0.2+  0.9-    070226 349  0.2-  0.0   
060617 423  0.2-  0.5-    060804 349  0.1-  1.1-    070226 349  0.2-  0.0   
060617 J55  0.4+  0.2-    060804 349  0.3-  1.0-    070311 B30  0.1-  0.2-  
060617 J55  0.4+  0.1-    060804 147  0.4+  0.3-    070312 B30  0.5+  0.1-  
060617 J55  0.5+  0.0     060804 147  0.6+  0.4+    070312 B30  1.1+  0.4+  
060617 I77  0.1-  0.2-    060804 147  0.3+  0.4+    070312 A24  0.2+  1.8-  
060617 I77  0.2+  0.2-    060804 147  0.5+  0.2+    070312 A24  1.4+  1.7-  
060618 I77  0.0   0.3-    060805 349  0.2-  0.1-    070312 A24  1.2+  0.2+  
060618 I77  0.5-  0.1-    060805 349  0.6-  0.4-    070312 A24  1.9+  0.0   
060618 423  0.4-  0.4+    060806 349  0.4-  0.2+    070312 A24  1.1+  0.5+  
060618 423  0.3-  0.1-    060806 349  0.3-  0.1+    070312 A32  0.6-  0.3+  
060618 423  0.4-  0.8-    060806 I77  0.0   0.1-    070312 A32  1.0-  1.3+  
060618 I77  0.4+  0.4-    060806 I77  0.6+  0.4-    070312 A32  1.5-  1.6+  
060618 I77  0.2+  0.2-    060806 I77  0.5+  0.4-    070312 A32  1.4-  1.3+  
060618 I77  0.0   0.3-    060808 E12  0.1-  0.0     070313 A24  0.0   0.1+  
060618 I77  0.2+  0.2-    060808 E12  0.2-  0.0     070313 A24  0.2-  0.4+  
060619 F84  0.2+  0.0     060808 E12  0.2-  0.1+    070313 A24  1.3+  0.9-  
060619 F84  0.2+  0.1+    060808 E12  0.3-  0.1+    070313 A24  0.4-  0.9+  
060619 F84  0.1+  0.2+    060810 349  0.7+  0.8-    070313 A24  0.9+  0.9-  
060619 F84  0.1+  0.1+    060810 349  0.5+  1.0-    070313 A24  1.9-  1.0+  
060619 372  1.6-  0.8+    060810 349  0.6+  0.8-    070313 A24  0.6-  0.6+  
060621 I05  0.1-  0.1-    060812 204  0.6+  0.0     070314 A24  0.7+  0.1-  
060622 834  0.2-  0.5+    060812 204  0.2+  0.1-    070314 A24  0.6+  0.1-  
060622 834  0.3+  0.2+    060817 232  0.3-  0.4+    070314 A24  0.4+  0.0   
060622 213  0.3+  0.8-    060817 232  0.8-  0.3+    070314 A24  0.3+  0.1-  
060622 213  0.2+  0.8-    060817 232  0.3+  0.6+    070314 A24  0.3+  0.2-  
060622 213  0.1+  0.4-    060818 D35  0.6-  0.8+    070314 A24  0.1-  0.1+  
060623 D35  0.3-  0.4+    060821 415  0.0   0.2-    070314 A24  0.1-  0.5+  
060623 D35  0.1-  0.1-    060821 415  0.2-  0.1-    070314 A24  0.0   0.3-  
060623 D35  0.3-  0.6+    060822 442  1.8+  1.7+    070314 A24  0.5+  0.8+  
060623 I77  0.5-  0.2+    060823 470  0.2-  2.0+    070314 A24  0.1-  1.6+  
060623 I77  0.6-  0.2+    060823 470  0.4-  1.2+    070314 A24  0.9-  0.8-  
060623 I77  0.3-  0.1-    060823 470  0.2-  0.4-    070314 A24  0.1+  0.5-  
060624 372  0.1-  0.2-    060827 J76  0.2+  0.3-    070314 A24  0.3+  0.2+  
060624 372  1.1+  0.8+    060827 J76  0.2+  0.1+    070314 A24  0.1+  0.5-  
060625 213  0.3+  0.0     060827 J76  0.2+  0.3-    070314 A24  0.5+  0.2-  
060625 213  0.2+  0.3+    060829 415  0.2-  0.3-    070314 A24  0.0   0.1-  
060625 213  0.6-  0.1+    060829 415  0.2+  0.6-    070314 A24  1.0+  0.2-  
060625 A77  0.5+  1.9-    060902 A79  1.4+  0.0     070314 A24  0.2-  0.0   
060625 A77  1.4-  0.5+    060902 A79 (2.2+  1.3-)   070315 A24  0.8+  0.2-  
060625 I77  0.7-  0.5+    060902 A79  1.3+  0.9-    070315 A24  0.2+  0.8-  
060625 I77  0.3-  0.1-    060902 A79  1.2+  1.6-    070315 A24  0.0   0.6-  
060625 I77  0.1-  0.0     060903 349  1.8+  1.0-    070315 A24  0.3+  0.9-  
060626 104  0.4-  0.1-    060903 349  1.8+  1.1-    070315 A24  0.5+  0.4-  
060626 213  0.7-  0.3+    060903 349  1.9+  1.0-    070315 A24  0.1-  0.1+  
060626 213  0.8-  0.4+    060921 215  0.7+  0.7-    070315 A24  1.1+  0.5-  
060626 104  0.5-  0.8+    060921 215  0.7+  0.7-    070315 A24  1.8+  0.3-  
060626 213 (0.4-  2.1+)   060921 215  0.8+  0.4-    070315 A24  0.7+  0.2+  
060626 104  0.7+  0.3-    060923 349  0.9+  1.5-    070315 A24  1.4+  0.1+  
060627 423  0.3-  0.2+    060923 349  1.4+  0.9-    070315 A24  0.2+  0.4+  
060627 423  0.3-  0.1+    060925 J76  0.6+  0.7-    070315 A24  0.9+  0.0   
060627 423  0.2-  0.1+    060925 J76  0.8+  0.6-    070315 A24  0.2+  0.3-  
060627 D88  0.9+  0.0     060925 J76  0.7+  0.0     070315 A24  0.3-  0.7-  
060627 D88  0.8-  0.4+    060926 J76  0.6+  0.1-    070315 A24  0.4-  0.5-  
060627 D88  0.4-  0.1+    060926 J76  0.4+  0.6-    070323 B30 (0.5+  2.8-) 
060628 I77  0.5+  0.3-    060926 J76  0.9+  1.7-    070323 B30  0.8+  1.0-  
060628 I77  0.0   0.0     061009 349  1.0+  0.9-    070323 B30  0.1+  0.2+  
060628 I77  0.3-  0.1+    061009 349  0.8+  1.0-    070325 300  0.1-  0.1-  
060629 E12  0.4-  0.1+    061009 349  0.8+  0.8-    070325 300  0.8-  0.5+  
060629 E12  0.4-  0.0     061202 349  0.0   1.1-    070325 300  0.7-  0.2+  
060629 E12  0.3-  0.0     061202 349  0.3+  1.1-    070326 B30  0.6-  0.0   
060629 213  0.2-  0.7+    061202 349  0.2+  1.3-    070326 B30  0.3-  0.3-  
060629 213  0.7-  0.0     061216 H06  0.6-  0.5+    070326 B30 (2.3+  0.6-) 
060629 213  0.5-  0.1+    061216 H06  0.2-  0.3-    070326 B30  0.6-  0.0   
060701 H06  0.0   0.2+    061217 349  0.2-  0.0     070328 349  0.6-  1.5+  
060701 H06  0.1-  0.1+    061217 349  0.1-  0.1-    070409 349  0.6-  0.6+  
060701 232  1.0+  1.2-    061217 349  0.1-  0.0     070409 349  1.1-  1.1+  
060701 232  0.7+  1.1-    061228 215  0.6-  0.2+    070513 561  1.3-  0.6-  
060701 232  0.4+  1.3-    061228 215  0.5-  0.2+    070513 561  0.5-  0.1-  
060703 213  0.5+  0.4+    061228 215  0.2-  0.0     070513 561  0.4-  0.7-  
060703 213  0.5+  0.3+    061229 D88  0.4-  1.0+    070513 561  1.1-  0.1-  
060703 213  0.3-  0.3+    061229 D88  0.1+  0.7+    070520 B30 (1.5+  2.3+) 
060709 673  0.4-  1.0+    061229 D88  0.3-  0.1+    070520 B30 (1.6-  4.9+) 
060709 673  0.2-  0.5+    061230 349  0.3-  0.1-    070520 B30 (1.6-  5.4+) 
060709 673  0.4-  0.7+    061230 349  0.6-  0.1-    070707 561  1.7-  2.0+  
060709 673  0.6-  1.0+    061230 349  0.5-  0.1+    070707 561 (2.9-  0.3+) 
060709 I77  0.1+  0.1+    2007/                     070707 561  0.0   0.2-  
060709 I77  0.6-  0.9+    070101 J70  1.3+  0.6+                            

